Zurück zum Katalog

CZ-6A DEB

AktivSSO
NORAD 56646·DEBRIS·🇨🇳 China

Gestartet Nov 11, 2022 von Taiyuan Satellite Launch Center

Loading…

Nächste Überflüge (nächste 24 Stunden)

TLE

AktuellSource: Space-Track

Epoche: Sep 13, 2026, 09:54 UTC

1 56646U 22151AFW 26256.41319024  .00001082  00000-0  27516-3 0  9998
2 56646  98.6919 328.1447 0104856  46.6185 314.3682 14.49640402178843

Verfolge CZ-6A DEB in Echtzeit mit AllMySat

Download on the App Store